This is the latest recevied weather packets stored in our database for station/object K4PAD. If no packets are shown the sender has not sent any weather packets the latest 10 day(s).
| Time | Temp. | Humidity | Pressure | Rain* | Wind** | Luminosity | Snow |
|---|---|---|---|---|---|---|---|
| 1777679982 | 25.56° C | 70% | 1011.8 hPa | 0 mm | - | 2 W/m² | - |
| 1777679677 | 26.11° C | 70% | 1011.7 hPa | 0 mm | - | 3 W/m² | - |
| 1777679373 | 26.67° C | 68% | 1011.8 hPa | 0 mm | - | 4 W/m² | - |
| 1777679070 | 27.22° C | 65% | 1011.6 hPa | 0 mm | - | 4 W/m² | - |
| 1777678769 | 27.78° C | 58% | 1011.5 hPa | 0 mm | - | 6 W/m² | - |
| 1777678466 | 27.78° C | 57% | 1011.5 hPa | 0 mm | - | 15 W/m² | - |
| 1777678161 | 27.78° C | 56% | 1011.2 hPa | 0 mm | - | 31 W/m² | - |
| 1777677859 | 27.78° C | 55% | 1011.2 hPa | 0 mm | - | 41 W/m² | - |
| 1777677556 | 27.78° C | 55% | 1011.3 hPa | 0 mm | - | 48 W/m² | - |
| 1777677254 | 28.33° C | 55% | 1011.1 hPa | 0 mm | - | 54 W/m² | - |
| 1777676952 | 28.33° C | 54% | 1011.1 hPa | 0 mm | - | 51 W/m² | - |
| 1777676651 | 28.33° C | 54% | 1011.1 hPa | 0 mm | - | 62 W/m² | - |
| 1777676348 | 28.89° C | 53% | 1011 hPa | 0 mm | - | 63 W/m² | - |
| 1777676045 | 28.89° C | 53% | 1010.7 hPa | 0 mm | - | 71 W/m² | - |
| 1777675741 | 28.89° C | 53% | 1010.6 hPa | 0 mm | - | 92 W/m² | - |
| 1777675439 | 28.89° C | 52% | 1010.9 hPa | 0 mm | - | 134 W/m² | - |
| 1777675135 | 28.89° C | 52% | 1010.9 hPa | 0 mm | - | 93 W/m² | - |
| 1777674831 | 28.89° C | 50% | 1010.8 hPa | 0 mm | - | 31 W/m² | - |
| 1777674527 | 29.44° C | 50% | 1010.7 hPa | 0 mm | - | 22 W/m² | - |
| 1777674226 | 29.44° C | 50% | 1010.6 hPa | 0 mm | - | 40 W/m² | - |
| 1777673921 | 29.44° C | 50% | 1010.7 hPa | 0 mm | - | 55 W/m² | - |
| 1777673618 | 29.44° C | 50% | 1010.7 hPa | 0 mm | - | 58 W/m² | - |
| 1777673317 | 30° C | 49% | 1010.4 hPa | 0 mm | - | 68 W/m² | - |
| 1777673013 | 30° C | 49% | 1010.4 hPa | 0 mm | - | 104 W/m² | - |
| 1777672710 | 30° C | 48% | 1010.4 hPa | 0 mm | - | 106 W/m² | - |
* Rain latest hour (hover to see other rain measurements)
** Current wind speed in m/s (hover to see current wind gust speed)